Location: Newark
(41.8083°N, 72.2500°W)
Time: 19:27:21
(UTC+00:00)

Courier 1B - Pass Details

Date: 01 December 2021
Orbit: 962 x 1209 km, 28.3° (Epoch: 19 January)

Event Time Altitude Azimuth Distance (km) Brightness Sun altitude
Rises 02:16:33 0° 255° (WSW) 3,786 11.0 -54.3°
Enters shadow 02:17:23 - 252° (WSW) 3,529 10.8 -54.4°
Reaches altitude 10° 02:20:03 10° 239° (WSW) 2,789 - -54.9°
Maximum altitude 02:24:43 20° 195° (SSW) 2,104 - -55.7°
Drops below altitude 10° 02:29:16 10° 150° (SSE) 2,704 - -56.5°
Sets 02:32:36 0° 134° (SE) 3,634 - -57.0°
